Location: Canazei
(46.4667°N, 11.7667°E)
Time: 06:28:35
(UTC+00:00)

Envisat - Pass Details

Date: 04 October 2021
Orbit: 764 x 766 km, 98.2° (Epoch: 24 October)

Event Time Altitude Azimuth Distance (km) Brightness Sun altitude
Rises 03:22:07 0° 25° (NNE) 3,241 6.8 -20.2°
Reaches altitude 10° 03:24:54 10° 40° (NE) 2,310 6.3 -19.7°
Maximum altitude 03:28:54 23° 92° (E) 1,594 5.5 -19.0°
Drops below altitude 10° 03:32:51 10° 144° (SE) 2,296 5.7 -18.4°
Sets 03:35:36 0° 159° (SSE) 3,216 6.3 -17.9°
